"2010-06-20 00:00:00",216460,1.788,4.892,10.23,0.67,21.36,109.1804,22.79,23.69,44.68,0,110.8,13.26,23.62,326.9
"2010-06-20 00:00:30",216461,2.335,3.267,10.8,0.711,21.39,109.1723,22.77,23.66,44.73,0,110.8,13.26,23.60,325.3
"2010-06-20 00:01:00",216462,3.089,354.6,5.741,0.766,21.25,109.1588,22.73,23.64,45.06,0,110.8,13.25,23.57,316.6
"2010-06-20 00:01:30",216463,1.849,1.44,5.429,0.429,21.37,109.1458,22.7,23.61,45.28,0,110.8,13.25,23.53,323.4
"2010-06-20 00:02:00",216464,3.467,352.1,3.041,0.511,21.25,109.1312,22.66,23.59,45.25,0,110.8,13.26,23.49,314.1
"2010-06-20 00:02:30",216465,3.761,347.6,2.247,0.183,21.29,109.1163,22.62,23.55,45.3,0,110.8,13.25,23.46,309.6
"2010-06-20 00:03:00",216466,3.931,347.7,3.258,0.482,21.29,109.1104,22.61,23.52,45.38,0,110.8,13.25,23.44,309.7
"2010-06-20 00:03:30",216467,4.387,342.2,2.432,0.154,21.29,109.0991,22.58,23.49,45.36,0,110.8,13.25,23.41,304.2
"2010-06-20 00:04:00",216468,4.221,347.2,3.165,0.258,21.36,109.0929,22.56,23.48,45.3,0,110.8,13.25,23.40,309.2
"2010-06-20 00:04:30",216469,3.95,346,4.641,0.3,21.28,109.0848,22.54,23.47,45.67,0,110.8,13.25,23.37,308.0
"2010-06-20 00:05:00",216470,3.798,336.9,6.691,0.936,21,109.0682,22.5,23.44,48.21,0,110.8,13.25,23.33,298.9
"2010-06-20 00:05:30",216471,3.102,334.6,11.51,0.498,21.06,109.0336,22.41,23.39,48.36,0,110.8,13.26,23.24,296.6
"2010-06-20 00:06:00",216472,3.538,351.7,4.713,0.661,21.42,109.0156,22.37,23.34,46.39,0,110.8,13.26,23.20,313.7
"2010-06-20 00:06:30",216473,3.049,354.1,7.382,0.971,21.47,109.0319,22.41,23.34,46.13,0,110.8,13.26,23.24,316.1
"2010-06-20 00:07:00",216474,4.518,344.3,7.215,0.517,21.25,109.0409,22.43,23.34,47.28,0,110.8,13.26,23.26,306.3
"2010-06-20 00:07:30",216475,3.906,344.4,6.764,0.332,21.36,109.033,22.41,23.33,46.94,0,110.8,13.26,23.24,306.4
"2010-06-20 00:08:00",216476,3.799,356.4,8.66,0.888,21.45,109.0448,22.44,23.34,46.51,0,110.8,13.26,23.27,318.4
"2010-06-20 00:08:30",216477,3.749,347.3,4.774,0.632,21.22,109.0479,22.45,23.34,46.94,0,110.8,13.27,23.28,309.3
"2010-06-20 00:09:00",216478,4.001,350,3.308,0.308,21.29,109.0429,22.44,23.33,46.87,0,110.8,13.27,23.27,312.0
"2010-06-20 00:09:30",216479,2.785,357.2,3.904,0.442,21.42,109.0448,22.44,23.31,46.24,0,110.8,13.27,23.27,319.2
"2010-06-20 00:10:00",216480,2.959,5.323,7.585,0.597,21.54,109.0555,22.47,23.32,45.98,0,110.8,13.27,23.30,327.3
"2010-06-20 00:10:30",216481,3.104,10.73,5.774,0.747,21.65,109.0828,22.54,23.37,45.56,0,110.8,13.27,23.37,332.7
"2010-06-20 00:11:00",216482,3.028,12.88,6.272,0.749,21.66,109.1101,22.61,23.4,45.22,0,110.8,13.27,23.44,334.9
"2010-06-20 00:11:30",216483,3.334,11.42,4.677,0.244,21.61,109.1337,22.67,23.45,45.05,0,110.8,13.27,23.50,333.4
"2010-06-20 00:12:00",216484,2.653,8.21,4.424,0.287,21.52,109.1489,22.71,23.49,44.84,0,110.8,13.27,23.54,330.2
"2010-06-20 00:12:30",216485,2.302,6.837,4.918,0.332,21.52,109.1605,22.74,23.51,44.72,0,110.8,13.27,23.57,328.8
"2010-06-20 00:13:00",216486,2.399,6.126,5.684,0.409,21.55,109.1661,22.75,23.53,44.59,0,110.8,13.27,23.58,328.1
"2010-06-20 00:13:30",216487,3.619,13.57,5.527,0.796,21.6,109.1779,22.78,23.57,44.4,0,110.8,13.27,23.61,335.6
"2010-06-20 00:14:00",216488,3.053,5.391,5.303,0.527,21.54,109.183,22.8,23.59,44.3,0,110.8,13.27,23.63,327.4
"2010-06-20 00:14:30",216489,3.51,15.11,8.43,1.037,21.64,109.194,22.82,23.61,44.03,0,110.8,13.27,23.66,337.1
"2010-06-20 00:15:00",216490,3.564,16.16,6.786,0.899,21.56,109.2058,22.85,23.64,44.07,0,110.8,13.27,23.69,338.2
"2010-06-20 00:15:30",216491,4.391,20.25,2.519,0.44,21.66,109.2145,22.88,23.67,44.05,0,110.8,13.27,23.71,342.2
"2010-06-20 00:16:00",216492,4.21,19.78,3.165,0.266,21.55,109.2167,22.88,23.69,44.1,0,110.8,13.27,23.71,341.8
"2010-06-20 00:16:30",216493,4.14,23.42,2.684,0.353,21.54,109.217,22.88,23.69,44.17,0,110.8,13.27,23.72,345.4
"2010-06-20 00:17:00",216494,4.213,24.79,1.959,0.243,21.54,109.2167,22.88,23.71,44.25,0,110.8,13.27,23.71,346.8
"2010-06-20 00:17:30",216495,4.195,26.26,2.306,0.475,21.62,109.2167,22.88,23.71,43.98,0,110.8,13.27,23.71,348.3
"2010-06-20 00:18:00",216496,4.472,24.4,2.114,0.311,21.57,109.2176,22.88,23.72,43.99,0,110.8,13.26,23.72,346.4
"2010-06-20 00:18:30",216497,4.582,21.45,2.017,0.362,21.54,109.2167,22.88,23.73,44.12,0,110.8,13.26,23.71,343.5
"2010-06-20 00:19:00",216498,3.807,27.52,4.019,0.407,21.62,109.2167,22.88,23.73,44.06,0,110.8,13.26,23.71,349.5
"2010-06-20 00:19:30",216499,3.713,28.22,3.047,0.411,21.65,109.2167,22.88,23.73,44.04,0,110.8,13.26,23.71,350.2
"2010-06-20 00:20:00",216500,3.689,28.16,2.645,0.392,21.67,109.221,22.89,23.74,43.91,0,110.8,13.26,23.73,350.2
"2010-06-20 00:20:30",216501,3.86,26.62,1.582,0.25,21.63,109.2333,22.93,23.74,43.99,0,110.8,13.26,23.76,348.6
"2010-06-20 00:21:00",216502,4.186,31.53,3.35,0.52,21.68,109.2328,22.92,23.75,43.82,0,110.8,13.26,23.76,353.5
"2010-06-20 00:21:30",216503,4.056,33.88,4.29,0.435,21.7,109.2393,22.94,23.75,43.75,0,110.8,13.26,23.77,355.9
"2010-06-20 00:22:00",216504,4.379,34.78,3.697,0.545,21.64,109.2446,22.95,23.79,43.84,0,110.8,13.26,23.79,356.8
"2010-06-20 00:22:30",216505,5.188,39.51,6.867,0.695,21.75,109.2485,22.96,23.79,43.36,0,110.8,13.26,23.80,1.5
"2010-06-20 00:23:00",216506,5.195,41.47,2.553,0.354,21.79,109.2575,22.99,23.81,43.14,0,110.8,13.26,23.82,3.5
"2010-06-20 00:23:30",216507,5.317,39.62,2.285,0.314,21.69,109.2674,23.01,23.84,43.4,0,110.8,13.26,23.84,1.6
"2010-06-20 00:24:00",216508,5.037,44.29,3.298,0.341,21.75,109.2755,23.03,23.84,43.1,0,110.8,13.26,23.87,6.3
"2010-06-20 00:24:30",216509,5.072,45.21,3.9,0.201,21.78,109.2843,23.06,23.87,42.84,0,110.8,13.26,23.89,7.2
"2010-06-20 00:25:00",216510,4.972,41.42,3.37,0.279,21.8,109.289,23.07,23.88,42.84,0,110.8,13.26,23.90,3.4
"2010-06-20 00:25:30",216511,4.522,51.89,4.433,0.181,21.86,109.298,23.09,23.91,42.02,0,110.8,13.26,23.92,13.9
"2010-06-20 00:26:00",216512,4.91,49.15,4.836,0.274,21.82,109.3138,23.13,23.92,42.01,0,110.8,13.26,23.96,11.2
"2010-06-20 00:26:30",216513,4.736,39.17,5.385,0.584,21.74,109.318,23.14,23.96,42.44,0,110.8,13.26,23.98,1.2
"2010-06-20 00:27:00",216514,5.129,42.78,1.65,0.167,21.77,109.3245,23.16,23.97,41.96,0,110.8,13.26,23.99,4.8
"2010-06-20 00:27:30",216515,5.098,44.25,3.007,0.187,21.74,109.3346,23.19,23.98,42.36,0,110.8,13.26,24.02,6.2
"2010-06-20 00:28:00",216516,5.259,47.74,2.312,0.519,21.78,109.3349,23.19,24,42.23,0,110.8,13.26,24.02,9.7
"2010-06-20 00:28:30",216517,5.401,48.35,2.866,0.255,21.81,109.3346,23.19,24.01,41.49,0,110.8,13.26,24.02,10.3
"2010-06-20 00:29:00",216518,4.79,39.13,2.494,0.285,21.71,109.3365,23.19,24.02,41.99,0,110.8,13.26,24.02,1.1
"2010-06-20 00:29:30",216519,4.415,37.12,2.858,0.635,21.68,109.3368,23.19,24.02,42.75,0,110.8,13.26,24.02,359.1
"2010-06-20 00:30:00",216520,3.497,31.03,3.286,0.436,21.56,109.3307,23.18,24.01,43.41,0,110.8,13.26,24.01,353.0
"2010-06-20 00:30:30",216521,3.701,30.72,3.531,0.423,21.61,109.3166,23.14,24.02,43.19,0,110.8,13.26,23.97,352.7
"2010-06-20 00:31:00",216522,4.304,33.61,4.383,0.395,21.66,109.3082,23.12,23.99,42.77,0,110.8,13.26,23.95,355.6
"2010-06-20 00:31:30",216523,3.683,30.29,5.667,0.408,21.58,109.3003,23.1,23.98,43.05,0,110.8,13.26,23.93,352.3
"2010-06-20 00:32:00",216524,3.257,29.24,3.593,0.285,21.66,109.2995,23.1,23.95,42.56,0,110.8,13.26,23.93,351.2
"2010-06-20 00:32:30",216525,3.406,24.46,4.468,0.374,21.58,109.2935,23.08,23.96,42.87,0,110.8,13.26,23.91,346.5
"2010-06-20 00:33:00",216526,3.782,26.21,3.355,0.34,21.55,109.2876,23.06,23.95,43.07,0,110.8,13.26,23.90,348.2
"2010-06-20 00:33:30",216527,3.916,24.41,6.564,0.475,21.49,109.2837,23.05,23.92,43.14,0,110.8,13.26,23.89,346.4
"2010-06-20 00:34:00",216528,3.157,22.31,6.928,0.352,21.51,109.2727,23.03,23.91,43.06,0,110.8,13.26,23.86,344.3
"2010-06-20 00:34:30",216529,2.373,14.11,4.47,0.509,21.45,109.2634,23,23.89,43.45,0,110.8,13.26,23.83,336.1
"2010-06-20 00:35:00",216530,2.939,14.05,8.4,0.769,21.45,109.2502,22.97,23.86,43.56,0,110.8,13.26,23.80,336.0
"2010-06-20 00:35:30",216531,3.116,12.27,5.233,0.598,21.32,109.2423,22.95,23.86,43.71,0,110.8,13.26,23.78,334.3
"2010-06-20 00:36:00",216532,3.616,7.077,8.57,0.76,21.32,109.2195,22.89,23.8,43.95,0,110.8,13.26,23.72,329.1
"2010-06-20 00:36:30",216533,3.533,355.4,3.39,0.515,21.19,109.1956,22.83,23.77,44.77,0,110.8,13.26,23.66,317.4
"2010-06-20 00:37:00",216534,3.586,357.6,3.536,0.572,21.11,109.1703,22.76,23.72,45.21,0,110.8,13.26,23.59,319.6
"2010-06-20 00:37:30",216535,3.74,356.9,3.858,0.723,21.13,109.1382,22.68,23.66,45.76,0,110.8,13.26,23.51,318.9
"2010-06-20 00:38:00",216536,3.682,5.055,6.624,0.438,21.28,109.1157,22.62,23.6,45.09,0,110.8,13.26,23.45,327.1
"2010-06-20 00:38:30",216537,4.586,13.86,5.139,0.917,21.26,109.1073,22.6,23.57,45.51,0,110.8,13.26,23.43,335.9
"2010-06-20 00:39:00",216538,4.028,12.61,4.02,0.594,21.32,109.098,22.58,23.54,45.14,0,110.8,13.26,23.41,334.6
"2010-06-20 00:39:30",216539,4.251,7.538,6.427,0.82,21.35,109.0972,22.58,23.52,44.86,0,110.8,13.26,23.41,329.5
"2010-06-20 00:40:00",216540,4.768,18.69,2.951,0.474,21.43,109.0963,22.57,23.49,44.72,0,110.8,13.27,23.40,340.7
"2010-06-20 00:40:30",216541,4.522,15.55,2.337,0.365,21.44,109.1014,22.59,23.49,44.61,0,110.8,13.27,23.42,337.5
"2010-06-20 00:41:00",216542,5.067,16.55,4.626,0.834,21.43,109.1062,22.6,23.49,44.94,0,110.8,13.27,23.43,338.5
"2010-06-20 00:41:30",216543,5.412,25.34,2.383,0.452,21.64,109.1143,22.62,23.5,44.58,0,110.8,13.28,23.45,347.3
"2010-06-20 00:42:00",216544,4.689,24.45,2.313,0.375,21.73,109.1295,22.66,23.51,44.45,0,110.8,13.28,23.49,346.5
"2010-06-20 00:42:30",216545,5.267,23.96,3.345,0.335,21.59,109.1481,22.71,23.54,44.5,0,110.8,13.28,23.54,346.0
"2010-06-20 00:43:00",216546,5.35,24.12,4.402,0.431,21.57,109.1492,22.71,23.56,44.65,0,110.8,13.27,23.54,346.1
"2010-06-20 00:43:30",216547,5.429,30.09,4.377,0.543,21.74,109.1613,22.74,23.57,44.08,0,110.8,13.27,23.57,352.1
"2010-06-20 00:44:00",216548,5.18,28.09,4.471,0.678,21.72,109.1785,22.78,23.59,44.02,0,110.8,13.27,23.62,350.1
"2010-06-20 00:44:30",216549,5.316,31.3,3.524,0.851,21.67,109.1835,22.8,23.63,44.22,0,110.8,13.27,23.63,353.3
"2010-06-20 00:45:00",216550,5.734,35,3.908,0.601,21.76,109.1954,22.83,23.65,43.62,0,110.8,13.27,23.66,357.0
"2010-06-20 00:45:30",216551,5.924,34.24,5.277,0.732,21.68,109.2013,22.84,23.66,43.73,0,110.8,13.27,23.67,356.2
"2010-06-20 00:46:00",216552,6.208,36.73,4.759,0.462,21.73,109.2148,22.88,23.68,43.35,0,110.8,13.27,23.71,358.7
"2010-06-20 00:46:30",216553,5.517,33.04,3.93,0.873,21.61,109.2167,22.88,23.72,43.69,0,110.8,13.27,23.71,355.0
"2010-06-20 00:47:00",216554,6.452,37.24,4.215,0.576,21.64,109.217,22.88,23.73,43.58,0,110.8,13.27,23.72,359.2
"2010-06-20 00:47:30",216555,5.571,34.29,4.923,0.762,21.51,109.2167,22.88,23.72,43.92,0,110.8,13.27,23.71,356.3
"2010-06-20 00:48:00",216556,5.52,35.34,4.359,0.625,21.6,109.2167,22.88,23.74,43.96,0,110.8,13.27,23.71,357.3
"2010-06-20 00:48:30",216557,6.105,39.41,5.18,0.633,21.69,109.2167,22.88,23.74,43.7,0,110.8,13.27,23.71,1.4
"2010-06-20 00:49:00",216558,5.734,35.74,3.061,0.603,21.57,109.2167,22.88,23.75,43.92,0,110.8,13.27,23.71,357.7
"2010-06-20 00:49:30",216559,6.555,37.9,5.616,0.706,21.59,109.2167,22.88,23.74,44.13,0,110.8,13.27,23.71,359.9
"2010-06-20 00:50:00",216560,6.442,42.01,4.681,0.635,21.66,109.2167,22.88,23.75,44.02,0,110.8,13.27,23.71,4.0
"2010-06-20 00:50:30",216561,6.572,39.01,3.369,0.473,21.69,109.2167,22.88,23.74,44.07,0,110.8,13.27,23.71,1.0
"2010-06-20 00:51:00",216562,6.228,39.17,4.133,0.537,21.65,109.2167,22.88,23.76,44.23,0,110.8,13.27,23.71,1.2
"2010-06-20 00:51:30",216563,6.657,40.4,2.012,0.186,21.69,109.2167,22.88,23.75,44.13,0,110.8,13.27,23.71,2.4
"2010-06-20 00:52:00",216564,6.648,41.09,3.333,0.492,21.7,109.2167,22.88,23.75,43.9,0,110.8,13.26,23.71,3.1
"2010-06-20 00:52:30",216565,6.46,37.03,5.097,0.768,21.71,109.2193,22.89,23.78,43.94,0,110.8,13.26,23.72,359.0
"2010-06-20 00:53:00",216566,6.782,40.48,4.027,0.607,21.79,109.2212,22.89,23.77,43.79,0,110.8,13.26,23.73,2.5
"2010-06-20 00:53:30",216567,6.757,40.01,3.071,0.64,21.76,109.2317,22.92,23.77,43.75,0,110.8,13.26,23.75,2.0
"2010-06-20 00:54:00",216568,6.841,38.56,2.3,0.573,21.7,109.2339,22.93,23.79,43.89,0,110.8,13.26,23.76,0.6
"2010-06-20 00:54:30",216569,6.526,37.87,3.377,0.781,21.71,109.2333,22.93,23.79,43.95,0,110.8,13.27,23.76,359.9
"2010-06-20 00:55:00",216570,7.076,40.47,2.599,0.287,21.75,109.2328,22.92,23.8,43.96,0,110.8,13.27,23.76,2.5
"2010-06-20 00:55:30",216571,7.027,37.3,3.525,0.563,21.69,109.2339,22.93,23.8,44.22,0,110.8,13.27,23.76,359.3
"2010-06-20 00:56:00",216572,6.939,38.38,3.35,0.308,21.77,109.2331,22.92,23.81,44.11,0,110.8,13.27,23.76,0.4
"2010-06-20 00:56:30",216573,6.847,38.98,3.14,0.45,21.78,109.2384,22.94,23.81,43.78,0,110.8,13.27,23.77,1.0
"2010-06-20 00:57:00",216574,7.393,40.41,2.362,0.203,21.81,109.2435,22.95,23.81,43.32,0,110.8,13.27,23.78,2.4
"2010-06-20 00:57:30",216575,7.086,35.8,1.362,0.276,21.71,109.2502,22.97,23.82,43.94,0,110.8,13.27,23.80,357.8
"2010-06-20 00:58:00",216576,6.904,35.16,2.688,0.719,21.66,109.2468,22.96,23.83,44.33,0,110.8,13.27,23.79,357.2
"2010-06-20 00:58:30",216577,6.483,32.9,3.684,0.861,21.63,109.2401,22.94,23.83,44.67,0,110.8,13.27,23.77,354.9
"2010-06-20 00:59:00",216578,6.039,32.3,2.434,0.776,21.67,109.2328,22.92,23.8,44.53,0,110.8,13.27,23.76,354.3
"2010-06-20 00:59:30",216579,7.2,35.54,2.36,0.827,21.74,109.2266,22.91,23.81,44.14,0,110.8,13.28,23.74,357.5
"2010-06-20 01:00:00",216580,6.069,32.06,2.84,0.924,21.61,109.217,22.88,23.8,44.74,0,110.8,13.28,23.72,354.1
"2010-06-20 01:00:30",216581,6.646,33.86,1.905,0.724,21.67,109.2162,22.88,23.8,44.82,0,110.8,13.28,23.71,355.9
"2010-06-20 01:01:00",216582,6.607,33.1,2.786,1.078,21.73,109.2111,22.87,23.77,44.5,0,110.8,13.28,23.70,355.1
"2010-06-20 01:01:30",216583,6.755,35.45,2.165,0.486,21.75,109.2066,22.86,23.76,43.88,0,110.8,13.28,23.69,357.5
"2010-06-20 01:02:00",216584,6.541,34.83,2.049,0.542,21.81,109.2139,22.88,23.77,43.28,0,110.8,13.28,23.71,356.8
"2010-06-20 01:02:30",216585,6.523,34.76,2.069,0.623,21.8,109.2184,22.89,23.76,43.19,0,110.8,13.28,23.72,356.8
"2010-06-20 01:03:00",216586,6.217,33.81,1.42,0.627,21.74,109.2311,22.92,23.79,43.37,0,110.8,13.28,23.75,355.8
"2010-06-20 01:03:30",216587,6.526,35.41,3.346,0.707,21.71,109.2373,22.94,23.8,43.52,0,110.8,13.28,23.77,357.4
"2010-06-20 01:04:00",216588,5.337,30.73,3.248,0.882,21.65,109.2407,22.94,23.81,43.98,0,110.8,13.28,23.78,352.7
"2010-06-20 01:04:30",216589,5.022,27.46,2.466,0.337,21.64,109.2378,22.94,23.81,44.52,0,110.8,13.28,23.77,349.5
"2010-06-20 01:05:00",216590,5.978,24.08,1.497,0.464,21.63,109.2336,22.93,23.81,44.75,0,110.8,13.28,23.76,346.1
"2010-06-20 01:05:30",216591,5.294,27.59,1.956,0.286,21.67,109.2305,22.92,23.8,44.61,0,110.8,13.28,23.75,349.6
"2010-06-20 01:06:00",216592,5.683,29.3,2.732,0.608,21.67,109.2266,22.91,23.8,44.75,0,110.8,13.28,23.74,351.3
"2010-06-20 01:06:30",216593,5.303,29.46,1.711,0.409,21.67,109.2215,22.89,23.8,44.8,0,110.8,13.28,23.73,351.5
"2010-06-20 01:07:00",216594,5.334,31.27,1.657,0.428,21.68,109.2176,22.88,23.79,44.96,0,110.8,13.27,23.72,353.3
"2010-06-20 01:07:30",216595,5.219,30.47,1.136,0.418,21.66,109.2167,22.88,23.8,44.85,0,110.8,13.28,23.71,352.5
"2010-06-20 01:08:00",216596,6.091,32.14,1.835,0.658,21.67,109.2167,22.88,23.77,44.55,0,110.8,13.28,23.71,354.1
"2010-06-20 01:08:30",216597,6.123,32.92,2.191,0.585,21.69,109.2167,22.88,23.79,44.34,0,110.8,13.28,23.71,354.9
"2010-06-20 01:09:00",216598,6.692,34.86,1.469,0.337,21.73,109.2167,22.88,23.79,44.14,0,110.8,13.27,23.71,356.9
"2010-06-20 01:09:30",216599,7.028,35.22,1.988,0.676,21.75,109.2167,22.88,23.78,44.08,0,110.8,13.27,23.71,357.2
"2010-06-20 01:10:00",216600,7.379,38.86,1.334,0.233,21.78,109.2238,22.9,23.78,43.77,0,110.8,13.27,23.73,0.9
"2010-06-20 01:10:30",216601,7.22,42.76,1.156,0.218,21.78,109.2317,22.92,23.78,43.61,0,110.8,13.27,23.75,4.8
"2010-06-20 01:11:00",216602,7.304,41.25,2.326,0.177,21.79,109.2367,22.93,23.82,43.55,0,110.8,13.27,23.77,3.2
"2010-06-20 01:11:30",216603,7.312,40.93,1.434,0.157,21.76,109.2423,22.95,23.82,43.58,0,110.8,13.27,23.78,2.9
"2010-06-20 01:12:00",216604,7.58,38.25,1.055,0.239,21.7,109.2477,22.96,23.83,43.81,0,110.8,13.27,23.79,0.2
"2010-06-20 01:12:30",216605,7.308,39.25,1.732,0.257,21.73,109.2483,22.96,23.83,43.52,0,110.8,13.27,23.80,1.2
"2010-06-20 01:13:00",216606,7.582,38.99,1.174,0.131,21.71,109.2491,22.97,23.84,43.41,0,110.8,13.27,23.80,1.0
"2010-06-20 01:13:30",216607,7.684,38.65,1.102,0.087,21.72,109.2502,22.97,23.85,43.35,0,110.8,13.27,23.80,0.7
"2010-06-20 01:14:00",216608,7.645,38.8,1.191,0.116,21.7,109.2505,22.97,23.84,43.24,0,110.8,13.27,23.80,0.8
"2010-06-20 01:14:30",216609,7.642,40.03,1.292,0.153,21.7,109.2505,22.97,23.85,43.31,0,110.8,13.27,23.80,2.0
"2010-06-20 01:15:00",216610,7.832,41.14,0.957,0.178,21.7,109.2505,22.97,23.85,43.44,0,110.8,13.27,23.80,3.1
"2010-06-20 01:15:30",216611,7.772,43.32,0.928,0.161,21.7,109.2505,22.97,23.85,43.42,0,110.8,13.28,23.80,5.3
"2010-06-20 01:16:00",216612,7.927,43.47,1.114,0.138,21.73,109.2505,22.97,23.86,43.25,0,110.8,13.27,23.80,5.5
"2010-06-20 01:16:30",216613,7.831,43.29,0.471,0.076,21.79,109.2505,22.97,23.87,43.01,0,110.8,13.28,23.80,5.3
"2010-06-20 01:17:00",216614,7.751,44.4,0.71,0.084,21.77,109.2522,22.97,23.85,42.94,0,110.8,13.28,23.81,6.4
"2010-06-20 01:17:30",216615,7.95,45.03,0.69,0.119,21.73,109.255,22.98,23.87,43,0,110.8,13.27,23.81,7.0
"2010-06-20 01:18:00",216616,7.87,44.87,0.435,0.069,21.72,109.2553,22.98,23.87,42.98,0,110.8,13.27,23.81,6.9
"2010-06-20 01:18:30",216617,7.845,48.22,1.499,0.177,21.82,109.2589,22.99,23.87,42.73,0,110.8,13.27,23.82,10.2
"2010-06-20 01:19:00",216618,8.03,49.54,1.209,0.148,21.78,109.2595,22.99,23.87,43.05,0,110.8,13.27,23.82,11.5
"2010-06-20 01:19:30",216619,7.721,51.51,0.495,0.061,21.83,109.2626,23,23.88,42.89,0,110.8,13.27,23.83,13.5
"2010-06-20 01:20:00",216620,7.598,52.35,0.759,0.099,21.82,109.2649,23.01,23.88,42.77,0,110.8,13.27,23.84,14.3
"2010-06-20 01:20:30",216621,7.515,52.1,0.808,0.131,21.82,109.2665,23.01,23.89,42.76,0,110.8,13.27,23.84,14.1
"2010-06-20 01:21:00",216622,7.362,52.92,0.726,0.086,21.83,109.2674,23.01,23.91,42.81,0,110.8,13.27,23.84,14.9
"2010-06-20 01:21:30",216623,7.187,54.1,1.341,0.117,21.86,109.2702,23.02,23.9,42.57,0,110.8,13.27,23.85,16.1
"2010-06-20 01:22:00",216624,7.318,56.46,1.106,0.145,21.84,109.2817,23.05,23.92,42.45,0,110.8,13.27,23.88,18.5
"2010-06-20 01:22:30",216625,7.431,57.6,0.619,0.094,21.86,109.2843,23.06,23.91,42.28,0,110.8,13.27,23.89,19.6
"2010-06-20 01:23:00",216626,7.345,56.89,1.051,0.119,21.87,109.2871,23.06,23.95,42.07,0,110.8,13.27,23.90,18.9
"2010-06-20 01:23:30",216627,7.886,58.41,0.759,0.092,21.89,109.2927,23.08,23.95,41.68,0,110.8,13.27,23.91,20.4
"2010-06-20 01:24:00",216628,7.871,60.05,1.205,0.093,21.91,109.2997,23.1,23.97,41.52,0,110.8,13.27,23.93,22.0
"2010-06-20 01:24:30",216629,7.623,64.63,2.138,0.272,22.28,109.3177,23.14,23.99,39.76,0,110.8,13.27,23.97,26.6
"2010-06-20 01:25:00",216630,7.467,67.47,3.721,0.44,22.31,109.345,23.21,24.04,39.15,0,110.8,13.27,24.04,29.5
"2010-06-20 01:25:30",216631,7.023,71.57,4.124,0.423,22.43,109.3781,23.3,24.08,37.96,0,110.8,13.27,24.13,33.6
"2010-06-20 01:26:00",216632,7.444,70.3,3.403,0.672,22.27,109.4064,23.37,24.13,38.32,0,110.8,13.27,24.20,32.3
"2010-06-20 01:26:30",216633,8.53,64.9,2.134,0.427,21.95,109.4329,23.44,24.21,39.63,0,110.8,13.27,24.27,26.9
"2010-06-20 01:27:00",216634,8.12,64.78,0.776,0.147,21.84,109.4457,23.47,24.25,40.33,0,110.8,13.26,24.30,26.8
"2010-06-20 01:27:30",216635,8.08,68.78,1.378,0.156,22.04,109.4485,23.48,24.27,39.55,0,110.8,13.26,24.31,30.8
"2010-06-20 01:28:00",216636,8.13,69.53,1.217,0.093,21.95,109.4481,23.48,24.29,39.9,0,110.9,13.27,24.31,31.5
"2010-06-20 01:28:30",216637,7.998,70.04,0.941,0.088,21.95,109.4472,23.47,24.29,39.64,0,110.8,13.27,24.31,32.0
"2010-06-20 01:29:00",216638,7.688,67.01,1.47,0.115,21.8,109.4466,23.47,24.3,40.03,0,110.8,13.27,24.31,29.0
"2010-06-20 01:29:30",216639,7.61,68.8,0.975,0.119,21.79,109.45,23.48,24.31,39.95,0,110.8,13.27,24.32,30.8
"2010-06-20 01:30:00",216640,7.306,69.13,0.761,0.065,21.86,109.4463,23.47,24.32,39.81,0,110.8,13.27,24.31,31.1
"2010-06-20 01:30:30",216641,7.096,68.98,0.819,0.076,21.85,109.4454,23.47,24.31,39.27,0,110.9,13.27,24.30,31.0
"2010-06-20 01:31:00",216642,7.04,66.37,0.743,0.074,21.69,109.4481,23.48,24.34,39.41,0,110.9,13.27,24.31,28.4
"2010-06-20 01:31:30",216643,6.979,64.32,1.391,0.054,21.66,109.4512,23.48,24.35,39.67,0,110.9,13.27,24.32,26.3
"2010-06-20 01:32:00",216644,6.932,65.14,0.683,0.037,21.79,109.4565,23.5,24.35,39.09,0,110.9,13.27,24.33,27.1
"2010-06-20 01:32:30",216645,6.807,62.1,1.288,0.063,21.7,109.4619,23.51,24.38,39.26,0,110.9,13.27,24.35,24.1
"2010-06-20 01:33:00",216646,6.979,60.17,0.968,0.163,21.6,109.4617,23.51,24.38,39.79,0,110.9,13.27,24.35,22.2
"2010-06-20 01:33:30",216647,7.082,58.25,0.59,0.096,21.56,109.4582,23.5,24.38,40.27,0,110.9,13.27,24.34,20.2
"2010-06-20 01:34:00",216648,7.11,56.92,0.712,0.076,21.51,109.4496,23.48,24.35,40.46,0,110.9,13.26,24.31,18.9
"2010-06-20 01:34:30",216649,7.062,56.4,1.1,0.071,21.46,109.4355,23.44,24.35,40.71,0,110.9,13.26,24.28,18.4
"2010-06-20 01:35:00",216650,7.339,54.28,0.695,0.147,21.47,109.438,23.45,24.32,40.96,0,110.9,13.26,24.28,16.3
"2010-06-20 01:35:30",216651,7.903,52.19,1.155,0.125,21.48,109.4236,23.41,24.32,40.95,0,110.9,13.26,24.25,14.2
"2010-06-20 01:36:00",216652,7.957,52.34,1.045,0.134,21.53,109.4155,23.39,24.3,40.94,0,110.9,13.26,24.23,14.3
"2010-06-20 01:36:30",216653,7.675,51.47,0.549,0.12,21.53,109.4043,23.36,24.28,41,0,110.9,13.26,24.20,13.5
"2010-06-20 01:37:00",216654,7.491,49.83,1.068,0.072,21.51,109.4021,23.36,24.27,41.18,0,110.9,13.26,24.19,11.8
"2010-06-20 01:37:30",216655,7.398,47.91,0.824,0.093,21.53,109.4036,23.36,24.26,41.24,0,110.9,13.26,24.20,9.9
"2010-06-20 01:38:00",216656,7.413,46.38,0.766,0.083,21.5,109.3939,23.34,24.23,41.26,0,110.9,13.26,24.17,8.4
"2010-06-20 01:38:30",216657,7.275,45.14,0.502,0.1,21.51,109.3861,23.32,24.22,41.3,0,110.9,13.26,24.15,7.1
"2010-06-20 01:39:00",216658,7.261,45.14,0.573,0.036,21.51,109.3773,23.3,24.21,41.38,0,110.9,13.26,24.13,7.1
"2010-06-20 01:39:30",216659,7.277,43.95,0.591,0.048,21.55,109.3739,23.29,24.19,41.54,0,110.9,13.26,24.12,6.0
"2010-06-20 01:40:00",216660,7.334,43.2,0.285,0.067,21.59,109.3726,23.28,24.18,41.63,0,110.9,13.27,24.12,5.2
"2010-06-20 01:40:30",216661,7.651,43.44,0.417,0.065,21.59,109.3615,23.25,24.15,41.81,0,110.9,13.27,24.09,5.4
"2010-06-20 01:41:00",216662,7.745,43.95,0.654,0.087,21.65,109.3523,23.23,24.15,41.91,0,110.9,13.27,24.06,6.0
"2010-06-20 01:41:30",216663,7.886,45.78,0.612,0.078,21.71,109.3453,23.21,24.12,41.9,0,110.8,13.27,24.05,7.8
"2010-06-20 01:42:00",216664,7.86,46.42,0.599,0.059,21.72,109.3453,23.21,24.11,41.93,0,110.8,13.27,24.05,8.4
"2010-06-20 01:42:30",216665,7.869,47.46,3.003,0.136,21.78,109.3469,23.22,24.1,41.73,0,110.8,13.27,24.05,9.5
"2010-06-20 01:43:00",216666,7.915,46.95,3.809,0.374,21.78,109.3463,23.22,24.1,41.58,0,110.8,13.26,24.05,9.0
"2010-06-20 01:43:30",216667,8.27,43.16,0.695,0.13,21.72,109.3373,23.19,24.09,42.35,0,110.8,13.26,24.03,5.2
"2010-06-20 01:44:00",216668,8.11,44.85,1.651,0.19,21.71,109.3315,23.18,24.07,42.46,0,110.8,13.26,24.01,6.8
"2010-06-20 01:44:30",216669,7.587,47.25,2.095,0.471,21.7,109.317,23.14,24.05,42.64,0,110.8,13.26,23.97,9.2
"2010-06-20 01:45:00",216670,7.756,46.27,1.171,0.256,21.62,109.3163,23.14,24.05,42.85,0,110.8,13.26,23.97,8.3
"2010-06-20 01:45:30",216671,8.32,46.97,2.109,0.317,21.82,109.3023,23.1,24.02,42.31,0,110.8,13.26,23.93,9.0
"2010-06-20 01:46:00",216672,7.98,48.33,2.174,0.162,21.73,109.3028,23.1,24.01,42.12,0,110.8,13.26,23.94,10.3
"2010-06-20 01:46:30",216673,7.357,50.48,4.874,0.464,21.63,109.298,23.09,24,42.67,0,110.8,13.26,23.92,12.5
"2010-06-20 01:47:00",216674,7.345,49.88,4.334,0.562,21.61,109.2905,23.07,23.99,42.84,0,110.8,13.26,23.90,11.9
"2010-06-20 01:47:30",216675,7.322,51.58,3.678,0.258,21.71,109.2848,23.06,23.98,42.56,0,110.8,13.26,23.89,13.6
"2010-06-20 01:48:00",216676,7.207,51.75,2.4,0.172,22.01,109.2927,23.08,23.97,40.62,0,110.8,13.26,23.91,13.8